Regional Weather Roundup
Issued by NWS Binghamton, NY

Home | Current Version | Previous Version | Text Only | Print | Product List | Glossary On
Versions: 1 2 3 4 5 6 7 8 9 10 11 12 13 14 15 16 17 18 19 20 21 22 23 24 25 26 27 28 29 30 31 32 33 34 35 36 37 38 39 40 41 42 43 44 45 46 47 48 49 50
000
ASUS41 KBGM 180910
RWRBGM

REGIONAL WEATHER ROUNDUP
NATIONAL WEATHER SERVICE BINGHAMTON NY
400 AM EST MON DEC 18 2017

Note: "fair" indicates few or no clouds below 12,000 feet with no
significant weather and/or obstructions to visibility.

* = Station(s) that does not report precipitation, such as rain,
snow, etc, also no thunder or fog.

NYZ009-015>018-022>025-036-037-044>046-055>057-062-181000
...Central New York...

CITY           SKY/WX    TMP DP  RH WIND       PRES   REMARKS
Binghamton     CLOUDY    30  25  81 S8        30.00F WCI  22
Cortland       CLOUDY    27  25  93 CALM      30.03F
Dansville      CLOUDY    31  26  82 S7        30.01F WCI  24
Elmira         CLOUDY    29  23  78 CALM      30.03F
Seneca Falls   CLOUDY    32  28  86 S7        30.04S WCI  26
Ithaca         NOT AVBL
Hornell        CLOUDY    28  27  93 CALM      30.04S
Monticello     CLOUDY    25  21  85 CALM      30.09F
Penn Yan       CLOUDY    32  26  78 SW6       30.01F WCI  26
Rome           CLOUDY    22  18  85 E8        30.09F WCI  12
Sidney         CLOUDY    27  25  93 CALM      30.04F
Syracuse       CLOUDY    22  19  89 E5        30.05F WCI  16
$$

PAZ038>040-043-044-047-048-072-181000
...Northeast Pennsylvania...

CITY           SKY/WX    TMP DP  RH WIND       PRES   REMARKS
Hazleton       CLOUDY    32  30  93 CALM      30.10F
Scranton       CLOUDY    32  27  81 CALM      30.09F
$$
&&
KEY
WCI = Wind Chill Index
VSB = Visibility
HX  = Heat Index
$$



USA.gov is the U.S. government's official web portal to all federal, state and local government web resources and services.